Station 46013 (LLNR 390) - BODEGA BAY - 48NM NW of San Francisco, CA Image indicating link to RSS feed of recent meteorological observations for station 46013


Conditions at 46013 as of
(4:10 pm PDT)
2310 GMT on 05/18/2024:
     

Click on the graph icon in the table below to see a time series plot of the last five days of that observation.

5-day plot - Wind Direction Wind Direction (WDIR):NNW ( 330 deg true )
5-day plot - Wind Speed Wind Speed (WSPD): 9.7 kts
5-day plot - Wind Gust Wind Gust (GST): 13.6 kts
5-day plot - Atmospheric Pressure Atmospheric Pressure (PRES):29.96 in
5-day plot - Air Temperature Air Temperature (ATMP): 53.4 °F
5-day plot - Dew Point Dew Point (DEWP): 52.0 °F
5-day plot - Wind Chill Wind Chill (CHILL): 50.0 °F
5-day plot - Wind Speed at 10 Meters Wind Speed at 10 meters (WSPD10M): 11.7 kts
5-day plot - Wind Speed at 20 Meters Wind Speed at 20 meters (WSPD20M): 11.7 kts
5-day plot -  Wind Speed, Wind Gust and Atmospheric Pressure Combined plot of Wind Speed, Gust, and Air Pressure
Supplemental Measurements
Highest 1-minute Wind Speed
Time (PDT)5-day plot - 1-Minute Wind Speed WSPD 5-day plot - 1-Minute Wind Direction WDIR
4:04 pm 11.7 kts-
Previous observations
TIME
(PDT)
5-day plot - Wind Direction
WDIR
 
5-day plot - Wind Speed
WSPD
kts
5-day plot - Wind Gust
GST
kts
5-day plot - Wave Height
WVHT
ft
5-day plot - Dominant Wave Period
DPD
sec
5-day plot - Average Wave Period
APD
sec
5-day plot - Mean Wave Direction
MWD
 
5-day plot - Atmospheric Pressure
PRES
in
5-day plot - Pressure Tendency
PTDY
in
5-day plot - Air Temperature
ATMP
°F
5-day plot - Water Temperature
WTMP
°F
5-day plot - Dew Point
DEWP
°F
5-day plot - Salinity
SAL
psu
5-day plot - Visibility
VIS
nmi
5-day plot - Tide (above MLLW)
TIDE
ft
2024-05-18 04:00 pmNNW 9.7 13.6----29.97-0.01 53.2- 51.8---
2024-05-18 03:50 pmNNW 9.7 11.7 6.9 87.6 NW29.97- 53.4- 52.0---
2024-05-18 03:40 pmNNW 7.8 11.7 6.9-7.6 NW29.97- 53.4- 52.2---
2024-05-18 03:30 pm NW 5.8 9.7----29.98- 53.6- 52.3---
2024-05-18 03:20 pm NW 5.8 9.7 6.6 107.4 NW29.98- 53.4- 52.2---
2024-05-18 03:10 pm NW 7.8 9.7 6.6-7.4 NW29.98- 53.4- 52.2---
2024-05-18 03:00 pm NW 5.8 9.7----29.98+0.00 53.6- 52.3---
2024-05-18 02:50 pm NW 5.8 7.8 6.6 107.3 NW29.98- 53.6- 52.3---
2024-05-18 02:40 pm NW 5.8 7.8 6.6-7.3 NW29.98- 53.6- 52.2---
2024-05-18 02:30 pm NW 5.8 7.8----29.98- 53.8- 52.2---
2024-05-18 02:20 pm NW 3.9 5.8 6.9 97.5 NW29.98- 54.0- 52.2---
2024-05-18 02:10 pm NW 3.9 5.8 6.9-7.5 NW29.98- 54.0- 52.2---
2024-05-18 02:00 pmWNW 1.9 5.8----29.98+0.01 54.0- 52.2---
2024-05-18 01:50 pmWNW 3.9 5.8 6.9 107.4 NW29.98- 54.0- 52.2---
2024-05-18 01:40 pmWNW 3.9 5.8 6.9-7.4 NW29.98- 54.1- 52.2---
2024-05-18 01:30 pmWNW 1.9 5.8----29.98- 54.1- 52.0---
2024-05-18 01:20 pm W 1.9 5.8 6.6 107.1 NW29.98- 54.3- 52.3---
2024-05-18 01:10 pm SW 1.9 3.9 6.6-7.1 NW29.99- 54.3- 52.3---
2024-05-18 01:00 pm- 0.0 3.9----29.98+0.02 54.3- 52.3---
2024-05-18 12:50 pm W 1.9 3.9 6.2 87.0 NW29.99- 54.3- 52.3---
2024-05-18 12:40 pm- 0.0 1.9----29.99- 54.7- 52.9---
2024-05-18 12:30 pm- 0.0 1.9----29.98- 54.1- 52.5---
2024-05-18 12:20 pm- 0.0 1.9 6.2 107.1 NW29.98- 53.6- 52.3---
2024-05-18 12:10 pm- 0.0 1.9----29.98- 53.2- 52.3---
2024-05-18 12:00 pm- 0.0 1.9----29.98+0.02 53.1- 52.2---
2024-05-18 11:50 am N 1.9 3.9 6.6 107.3 NW29.98- 52.5- 51.8---
2024-05-18 11:40 am N 3.9 5.8----29.98- 52.3- 51.6---
2024-05-18 11:30 amNNW 3.9 7.8----29.98- 52.3- 51.6---
2024-05-18 11:20 amNNW 5.8 7.8 6.2 107.4 NW29.98- 52.2- 51.4---
2024-05-18 11:10 am NW 3.9 5.8 6.2-7.4 NW29.98- 52.2- 51.4---
2024-05-18 11:00 am NW 5.8 7.8----29.98+0.04 52.0- 51.3---
2024-05-18 10:50 am NW 3.9 5.8 5.9 117.3 NW29.97- 52.0- 51.3---
2024-05-18 10:40 am NW 3.9 5.8----29.97- 52.0- 51.3---
2024-05-18 10:30 am NW 3.9 7.8----29.97- 52.0- 51.3---
2024-05-18 10:20 am NW 3.9 5.8 6.2 117.5 NW29.97- 52.0- 51.3---
2024-05-18 10:10 am NW 3.9 5.8 6.2-7.5 NW29.97- 52.2- 51.4---
2024-05-18 10:00 am NW 3.9 7.8----29.97+0.04 52.2- 51.3---
2024-05-18 09:50 am NW 3.9 5.8 7.9 107.9 NW29.97- 52.3- 51.4---
2024-05-18 09:40 amWNW 3.9 7.8 7.9-7.9 NW29.97- 52.5- 51.3---
2024-05-18 09:30 am W 1.9 5.8----29.97- 52.9- 51.4---
2024-05-18 09:20 am W 1.9 3.9 6.9 107.3 NW29.96- 52.9- 51.4---
2024-05-18 09:10 am- 0.0 3.9 6.9-7.3 NW29.96- 52.9- 51.4---
2024-05-18 09:00 am SW 1.9 3.9----29.96+0.05 52.9- 51.4---
2024-05-18 08:50 am SW 1.9 3.9 6.6 107.2 NW29.96- 52.9- 51.1---
2024-05-18 08:40 am SW 1.9 3.9----29.95- 52.9- 51.1---
2024-05-18 08:30 am SW 1.9 3.9----29.95- 52.9- 51.1---
2024-05-18 08:20 am SW 1.9 3.9 6.6 107.2 NW29.95- 52.9- 51.1---
2024-05-18 08:10 amSSW 1.9 3.9----29.95- 52.9- 51.1---
2024-05-18 08:00 am S 1.9 7.8----29.94+0.04 52.9- 51.1---
2024-05-18 07:50 amSSE 1.9 5.8 6.9 107.5 NW29.94- 52.9- 51.1---
2024-05-18 07:40 amSSE 3.9 7.8 6.9-7.5 NW29.94- 52.9- 51.1---
2024-05-18 07:30 amESE 3.9 7.8----29.93- 52.9- 51.1---
2024-05-18 07:20 amESE 3.9 7.8 7.2 107.4 NW29.93- 52.7- 50.9---
2024-05-18 07:10 am SE 1.9 7.8 7.2-7.4 NW29.93- 52.9- 51.1---
2024-05-18 07:00 amSSE 1.9 3.9----29.93+0.03 52.9- 51.1---
2024-05-18 06:50 am S 1.9 5.8 6.9 107.3 NW29.93- 52.7- 50.9---
2024-05-18 06:40 am SE 1.9 5.8 6.9-7.3 NW29.92- 52.9- 51.1---
2024-05-18 06:30 am SE 1.9 3.9----29.92- 52.9- 51.1---
2024-05-18 06:20 amSSE 1.9 3.9 7.2 107.5 NW29.92- 52.7- 50.9---
2024-05-18 06:10 am- 0.0 3.9 7.2-7.5 NW29.91- 52.9- 51.1---
2024-05-18 06:00 am- 0.0 3.9----29.91+0.01 52.7- 50.9---
2024-05-18 05:50 am- 0.0 1.9 6.6 107.1 NW29.91- 52.7- 51.1---
2024-05-18 05:40 am- 0.0 3.9 6.6-7.1 NW29.91- 52.7- 51.3---
2024-05-18 05:30 am- 0.0 3.9----29.91- 52.7- 51.3---
2024-05-18 05:20 am- 0.0 1.9 6.6 107.5 NW29.91- 52.5- 51.1---
2024-05-18 05:10 am- 0.0 1.9 6.6-7.5 NW29.91- 52.5- 51.1---
2024-05-18 05:00 am- 0.0 1.9----29.91+0.01 52.5- 51.1---
2024-05-18 04:50 am- 0.0 3.9 6.6 97.2 NW29.91- 52.5- 51.1---
2024-05-18 04:40 am- 0.0 3.9----29.90- 52.5- 51.1---
2024-05-18 04:30 am- 0.0 3.9----29.90- 52.3- 50.9---
2024-05-18 04:20 amESE 1.9 3.9 7.2 107.5 NW29.90- 52.3- 50.9---
2024-05-18 04:10 am S 1.9 3.9 7.2-7.5 NW29.90- 52.3- 50.9---
2024-05-18 04:00 am S 1.9 3.9----29.90+0.00 52.3- 50.9---
2024-05-18 03:50 am S 1.9 3.9 7.2 97.6 NW29.90- 52.3- 50.9---
2024-05-18 03:40 am S 1.9 5.8 7.2-7.6 NW29.90- 52.5- 50.9---
2024-05-18 03:30 amSSE 1.9 9.7----29.90- 52.5- 50.9---
2024-05-18 03:20 amSSE 3.9 7.8 6.9 87.5 NW29.90- 52.5- 50.9---
2024-05-18 03:10 amSSE 3.9 7.8----29.90- 52.9- 51.1---
2024-05-18 03:00 amSSE 1.9 7.8----29.90-0.01 52.9- 51.1---
2024-05-18 02:50 amSSE 1.9 7.8 6.9 107.5 NW29.90- 52.9- 51.1---
2024-05-18 02:40 am SE 3.9 7.8 6.9-7.5 NW29.89- 52.7- 50.9---
2024-05-18 02:30 amSSE 3.9 7.8----29.89- 52.7- 51.3---
2024-05-18 02:20 am SE 3.9 9.7 6.9 107.7 NW29.89- 53.1- 51.8---
2024-05-18 02:10 amESE 3.9 5.8 6.9-7.7 NW29.90- 53.2- 52.0---
2024-05-18 02:00 amESE 3.9 5.8----29.90+0.00 53.2- 51.8---
2024-05-18 01:50 am E 1.9 5.8 6.9 97.6 NW29.90- 53.4- 51.6---
2024-05-18 01:40 amENE 1.9 3.9----29.90- 53.2- 51.4---
2024-05-18 01:30 am E 1.9 5.8----29.90- 53.1- 51.3---
2024-05-18 01:20 amESE 1.9 7.8 7.2 97.7 NW29.90- 52.9- 51.1---
2024-05-18 01:10 am SE 3.9 7.8----29.90- 52.9- 51.1---
2024-05-18 01:00 am SE 3.9 5.8----29.90+0.00 52.9- 51.1---
2024-05-18 12:50 am SE 3.9 7.8 6.6 107.4 NW29.90- 52.9- 51.3---
2024-05-18 12:40 am E 1.9 7.8 6.6-7.4 NW29.90- 52.9- 51.3---
2024-05-18 12:30 am E 3.9 5.8----29.90- 52.9- 51.3---
2024-05-18 12:20 amSSE 1.9 3.9 6.6 107.4 NW29.90- 52.9- 51.1---
2024-05-18 12:10 amESE 1.9 5.8 6.6-7.4 NW29.91- 52.9- 51.3---
2024-05-18 12:00 am SE 3.9 7.8----29.91+0.02 52.7- 51.1---
2024-05-17 11:50 pm SE 1.9 7.8 6.6 107.3 NW29.91- 52.7- 51.3---
2024-05-17 11:40 pmSSE 1.9 7.8 6.6-7.3 NW29.91- 52.5- 51.1---
2024-05-17 11:30 pmSSE 1.9 7.8----29.91- 52.7- 51.1---
2024-05-17 11:20 pmSSE 1.9 5.8 6.2 117.3 NW29.90- 52.7- 50.9---
2024-05-17 11:10 pm- 0.0 5.8----29.90- 52.7- 50.9---
2024-05-17 11:00 pm S 1.9 5.8----29.91+0.02 52.7- 50.9---
2024-05-17 10:50 pm- 0.0 3.9 5.6 107.1 NW29.91- 52.9- 51.3---
2024-05-17 10:40 pm- 0.0 1.9----29.91- 52.7- 51.3---
2024-05-17 10:30 pm- 0.0 1.9----29.91- 52.5- 51.1---
2024-05-17 10:20 pm- 0.0 1.9 6.2 107.4 NW29.91- 52.5- 51.1---
2024-05-17 10:10 pm- 0.0 1.9 6.2-7.4 NW29.91- 52.3- 50.9---
2024-05-17 10:00 pm NE 1.9 3.9----29.90+0.02 52.3- 50.9---
2024-05-17 09:50 pm NE 1.9 3.9 5.6 107.1 NW29.90- 52.5- 51.1---
2024-05-17 09:40 pm NE 1.9 3.9----29.90- 52.5- 51.1---
2024-05-17 09:30 pm NE 1.9 3.9----29.89- 52.5- 51.1---
2024-05-17 09:20 pmENE 3.9 5.8 5.9 97.1 NW29.89- 52.5- 51.1---
2024-05-17 09:10 pm NE 1.9 3.9 5.9-7.1 NW29.89- 52.7- 51.3---
2024-05-17 09:00 pmENE 3.9 3.9----29.88-0.01 52.5- 51.1---
2024-05-17 08:50 pm NE 1.9 3.9 5.9 97.2 NW29.88- 52.7- 51.3---
2024-05-17 08:40 pmNNE 3.9 3.9----29.88- 52.7- 51.3---
2024-05-17 08:30 pmNNE 3.9 5.8----29.88- 52.7- 51.3---
2024-05-17 08:20 pm N 3.9 7.8 5.9 97.0 NW29.88- 52.9- 51.1---
2024-05-17 08:10 pmNNW 5.8 7.8 5.9-7.0 NW29.88- 52.7- 50.9---
2024-05-17 08:00 pmNNW 5.8 7.8----29.88-0.03 52.7- 50.9---
2024-05-17 07:50 pm NW 3.9 7.8 5.2 96.6 NW29.88- 52.7- 50.9---
2024-05-17 07:40 pm NW 3.9 7.8 5.2-6.6 NW29.88- 52.9- 51.3---
2024-05-17 07:30 pm NW 3.9 7.8----29.88- 52.7- 51.3---
2024-05-17 07:20 pm NW 3.9 7.8 5.6 87.0 NW29.88- 52.5- 51.1---
2024-05-17 07:10 pmNNW 3.9 7.8----29.88- 52.3- 50.9---
2024-05-17 07:00 pmNNW 3.9 7.8----29.89-0.04 52.3- 50.9---
2024-05-17 06:50 pmNNW 3.9 7.8 5.6 96.8 NW29.89- 52.3- 50.9---
2024-05-17 06:40 pmNNW 3.9 7.8 5.6-6.8 NW29.89- 52.3- 50.9---
2024-05-17 06:30 pmNNW 5.8 9.7----29.89- 52.3- 50.9---
2024-05-17 06:20 pmNNW 5.8 7.8 5.6 96.6 NW29.89- 52.3- 50.9---
2024-05-17 06:10 pm N 5.8 9.7----29.89- 52.3- 50.7---
2024-05-17 06:00 pmNNW 5.8 7.8----29.90-0.04 52.3- 50.9---
2024-05-17 05:50 pmNNW 3.9 5.8 5.9 96.9 NW29.90- 52.3- 50.9---
2024-05-17 05:40 pm NW 5.8 7.8----29.91- 52.0- 50.5---
2024-05-17 05:30 pmWNW 3.9 7.8----29.91- 52.2- 50.7---
2024-05-17 05:20 pmWNW 5.8 7.8 6.9 96.9 NW29.91- 52.3- 50.9---
2024-05-17 05:10 pm NW 3.9 9.7 6.9-6.9 NW29.91- 52.7- 50.9---
2024-05-17 05:00 pmNNW 1.9 3.9----29.91-0.04 53.1- 51.1---
2024-05-17 04:50 pmNNW 1.9 5.8 7.2 97.1 NW29.91- 52.7- 50.9---
2024-05-17 04:40 pmNNW 1.9 5.8----29.91- 52.7- 50.9---
2024-05-17 04:30 pm N 1.9 3.9----29.91- 52.7- 50.9---
2024-05-17 04:20 pm W 1.9 5.8 7.2 97.3 NW29.92- 53.1- 50.9---
2024-05-17 04:10 pm SW 1.9 5.8 7.2-7.3 NW29.92- 53.2- 50.9---
2024-05-17 04:00 pm- 0.0 1.9----29.92-0.04 53.6- 51.1---
2024-05-17 03:50 pm- 0.0 1.9 7.2 87.3 NW29.92- 54.0- 51.4---

Detailed Wave Summary
for 46013 as of (3:40 pm PDT)
2240 GMT on 05/18/2024:

These wave data are displayed in rounded times.

     

Click on the graph icon in the table below to see a time series plot of the last five days of that observation.

5-day plot - Significant Wave Height Significant Wave Height (WVHT): 6.9 ft
5-day plot - Swell Height Swell Height (SwH): 6.9 ft
5-day plot - Swell Period Swell Period (SwP): 8.3 sec
5-day plot - Swell Direction Swell Direction (SwD): NW
5-day plot - Wind Wave Height Wind Wave Height (WWH): 1.3 ft
5-day plot - Wind Wave Period Wind Wave Period (WWP): 3.3 sec
5-day plot - Wind Wave Direction Wind Wave Direction (WWD):WNW
5-day plot - Wave Steepness Wave Steepness (STEEPNESS): AVERAGE
5-day plot - Average Wave Period Average Wave Period (APD): 7.6 sec
Previous observations
TIME
(PDT)
5-day plot - Wave Height
WVHT
ft
5-day plot - Swell Height
SwH
ft
5-day plot - Swell Period
SwP
sec
5-day plot - Swell Direction
SwD
 
5-day plot - Wind Wave Height
WWH
ft
5-day plot - Wind Wave Period
WWP
sec
5-day plot - Wind Wave Direction
WWD
 
5-day plot - Wave Steepness
STEEPNESS
 
5-day plot - Average Wave Period
APD
sec
2024-05-18 03:10 pm 6.6 6.6 10.0 NW 1.3 3.6 W AVERAGE 7.4
2024-05-18 02:40 pm 6.6 6.6 10.0 NW 1.3 3.7 WNW AVERAGE 7.3
2024-05-18 02:10 pm 6.9 6.9 9.1 NW 1.3 3.8 WNW AVERAGE 7.5
2024-05-18 01:40 pm 6.9 6.9 10.0 NW 1.3 4.0 WNW AVERAGE 7.4
2024-05-18 01:10 pm 6.6 6.6 10.0 NW 1.3 4.0 NW AVERAGE 7.1
2024-05-18 12:40 pm 6.2 6.2 8.3 NW 1.3 3.8 WNW AVERAGE 7.0
2024-05-18 12:10 pm 6.2 5.9 10.0 NW 1.3 3.8 WNW SWELL 7.1
2024-05-18 11:40 am 6.6 6.2 10.0 NW 1.3 3.8 NW SWELL 7.3
2024-05-18 11:10 am 6.2 6.2 10.0 NW 1.3 3.4 NW SWELL 7.4
2024-05-18 10:40 am 5.9 5.9 11.4 NW 1.3 3.2 NW SWELL 7.3
2024-05-18 10:10 am 6.2 6.2 10.8 NW 1.3 3.8 WNW SWELL 7.5
2024-05-18 09:40 am 7.9 7.9 10.0 NW 1.3 4.0 WNW AVERAGE 7.9
2024-05-18 09:10 am 6.9 6.9 10.0 NW 1.3 3.7 WNW AVERAGE 7.3
2024-05-18 08:40 am 6.6 6.6 10.0 NW 1.3 3.7 WNW AVERAGE 7.2
2024-05-18 08:10 am 6.6 6.6 10.0 NW 1.3 4.0 WNW AVERAGE 7.2
2024-05-18 07:40 am 6.9 6.6 10.0 NW 1.3 3.8 WNW AVERAGE 7.5
2024-05-18 07:10 am 7.2 6.9 10.0 NW 1.3 3.6 NW AVERAGE 7.4
2024-05-18 06:40 am 6.9 6.9 10.0 NW 1.3 3.6 WNW AVERAGE 7.3
2024-05-18 06:10 am 7.2 7.2 10.0 NW 1.3 4.0 WNW AVERAGE 7.5
2024-05-18 05:40 am 6.6 6.2 10.0 NW 1.3 3.4 W SWELL 7.1
2024-05-18 05:10 am 6.6 6.6 10.0 NW 1.3 3.8 WNW AVERAGE 7.5
2024-05-18 04:40 am 6.6 6.6 9.1 NW 1.3 3.4 WNW AVERAGE 7.2
2024-05-18 04:10 am 7.2 7.2 10.0 NW 1.3 3.8 WNW AVERAGE 7.5
2024-05-18 03:40 am 7.2 7.2 9.1 NW 1.3 3.7 WNW AVERAGE 7.6
2024-05-18 03:10 am 6.9 6.9 8.3 NW 1.3 3.7 WNW AVERAGE 7.5
2024-05-18 02:40 am 6.9 6.9 10.0 NW 1.3 3.8 WNW AVERAGE 7.5
2024-05-18 02:10 am 6.9 6.9 10.0 NW 1.3 3.7 NW AVERAGE 7.7
2024-05-18 01:40 am 6.9 6.9 9.1 NW 1.3 3.4 WNW AVERAGE 7.6
2024-05-18 01:10 am 7.2 7.2 9.1 NW 1.3 3.7 NW AVERAGE 7.7
2024-05-18 12:40 am 6.6 6.6 10.0 NW 1.3 3.8 WNW AVERAGE 7.4
2024-05-18 12:10 am 6.6 6.6 10.0 NW 1.3 3.6 WNW AVERAGE 7.4
2024-05-17 11:40 pm 6.6 6.6 10.0 NW 1.3 4.0 WNW AVERAGE 7.3
2024-05-17 11:10 pm 6.2 5.9 10.8 NW 1.3 4.0 WNW SWELL 7.3
2024-05-17 10:40 pm 5.6 5.6 10.0 NW 1.3 3.7 WNW SWELL 7.1
2024-05-17 10:10 pm 6.2 5.9 10.0 NW 1.3 4.0 WNW SWELL 7.4
2024-05-17 09:40 pm 5.6 5.2 10.0 NW 1.3 3.6 WNW SWELL 7.1
2024-05-17 09:10 pm 5.9 5.9 9.1 NW 1.3 3.6 WNW AVERAGE 7.1
2024-05-17 08:40 pm 5.9 5.6 9.1 NW 1.3 3.8 WNW AVERAGE 7.2
2024-05-17 08:10 pm 5.9 5.9 9.1 NW 1.3 3.8 WNW AVERAGE 7.0
2024-05-17 07:40 pm 5.2 4.9 9.1 NW 1.3 4.0 NW AVERAGE 6.6
2024-05-17 07:10 pm 5.6 5.6 8.3 NW 1.3 3.8 NW AVERAGE 7.0
2024-05-17 06:40 pm 5.6 5.6 9.1 NW 1.3 3.8 WNW AVERAGE 6.8
2024-05-17 06:10 pm 5.6 5.6 9.1 NW 1.3 3.6 WNW AVERAGE 6.6
2024-05-17 05:40 pm 5.9 5.9 9.1 NW 1.3 3.8 WNW AVERAGE 6.9
2024-05-17 05:10 pm 6.9 6.6 9.1 NW 1.3 3.8 NW AVERAGE 6.9
2024-05-17 04:40 pm 7.2 6.9 9.1 NW 1.3 3.8 NW AVERAGE 7.1
2024-05-17 04:10 pm 7.2 6.9 9.1 NW 1.3 3.4 WNW AVERAGE 7.3

Plot of wave energy versus frequency (and period)